EW0822 Weather Reports


time (UTC)temp
C
wind
direction
speed
KPH
gust
KPH
rain 1hr
cm
rain 24hr
cm
rain mn
cm
humidity
%
barometer
mb
20260831071537 17 73 0.0 0.0 0.00 0.23 0.23 78 1011.3
20260831070044 17 73 0.0 0.0 0.00 0.23 0.23 77 1011.3
20260831064536 17 73 0.0 0.0 0.00 0.23 0.23 77 1011.2
20260831063032 17 73 0.0 0.0 0.00 0.23 0.23 77 1011.1
20260831061532 16 73 0.0 0.0 0.00 0.23 0.23 76 1011.1
20260831060028 16 73 0.0 0.0 0.00 0.23 0.23 75 1011.0
20260831054525 15 73 0.0 0.0 0.00 0.23 0.23 75 1010.8
20260831053022 15 73 0.0 0.0 0.00 0.23 0.23 76 1010.8
20260831051532 15 73 0.0 0.0 0.00 0.23 0.23 76 1010.9
20260831050019 15 73 0.0 0.0 0.00 0.23 0.23 76 1010.9
20260831044521 15 73 0.0 0.0 0.00 0.23 0.23 76 1010.8
20260831043016 16 73 0.0 0.0 0.00 0.23 0.23 76 1010.8
20260831041514 16 73 0.0 0.0 0.00 0.23 0.23 76 1010.7
20260831040013 16 73 0.0 0.0 0.00 0.23 0.23 76 1010.5
20260831034512 16 73 0.0 0.0 0.00 0.23 0.23 76 1010.4
20260831033016 16 73 0.0 0.0 0.10 0.23 0.23 76 1010.4
20260831031514 16 73 0.0 0.0 0.23 0.23 0.23 77 1010.4
20260831030007 17 73 0.0 0.0 0.23 0.23 0.23 78 1010.4
20260831024505 17 73 0.0 0.0 0.23 0.23 0.23 79 1010.4
20260831023001 17 73 0.0 0.0 0.13 0.13 0.13 80 1010.5
20260831021600 17 88 0.0 0.0 0.00 0.00 0.00 78 1010.3
20260831020111 17 88 0.0 0.0 0.00 0.00 0.00 77 1010.2
20260831014557 17 168 0.0 0.0 0.00 0.00 0.00 76 1010.0
20260831013100 17 196 0.0 0.0 0.00 0.00 0.00 76 1010.1
20260831011556 17 196 0.0 0.0 0.00 0.00 0.00 75 1010.2
20260831010053 17 198 0.0 0.0 0.00 0.03 0.00 75 1010.2
20260831004556 17 198 0.0 0.0 0.00 0.03 0.00 75 1010.4
20260831003052 18 198 0.0 0.0 0.00 0.03 0.00 74 1010.4
20260831001551 18 198 0.0 0.0 0.00 0.03 0.00 74 1010.4
20260831000050 18 198 0.0 0.0 0.00 0.03 0.00 74 1010.5
20260830234549 18 198 0.0 0.0 0.00 0.03 0.00 74 1010.5
20260830233049 18 198 0.0 0.0 0.00 0.03 0.00 74 1010.6
20260830231548 18 198 0.0 0.0 0.00 0.03 0.00 74 1010.7
20260830230046 18 198 0.0 0.0 0.00 0.03 0.00 74 1010.6
20260830224546 18 198 0.0 0.0 0.00 0.03 0.00 73 1010.7
20260830223042 18 198 0.0 0.0 0.00 0.03 0.00 73 1010.9
20260830221542 18 198 0.0 0.0 0.00 0.03 0.00 73 1011.0
20260830220044 18 198 0.0 0.0 0.00 0.03 0.03 74 1011.1
20260830214540 18 198 0.0 0.0 0.00 0.03 0.03 74 1011.1
20260830213039 18 198 0.0 0.0 0.00 0.03 0.03 74 1011.1
20260830211537 18 198 0.0 0.0 0.00 0.03 0.03 75 1011.2
20260830210036 18 198 0.0 0.0 0.00 0.03 0.03 76 1011.3
20260830204535 18 198 0.0 0.0 0.00 0.03 0.03 77 1011.3
20260830203036 18 198 0.0 0.0 0.00 0.03 0.03 77 1011.4
20260830201534 18 198 0.0 0.0 0.00 0.03 0.03 76 1011.4
20260830200033 18 198 0.0 0.0 0.00 0.03 0.03 75 1011.5
20260830194535 18 198 0.0 0.0 0.00 0.03 0.03 74 1011.7
20260830193033 19 198 0.0 0.0 0.00 0.03 0.03 73 1011.7
20260830191538 20 198 0.0 0.0 0.00 0.03 0.03 72 1011.8
20260830190031 20 198 0.0 0.0 0.00 0.08 0.03 70 1011.7
20260830184530 21 198 0.0 0.0 0.00 0.08 0.03 68 1011.7
20260830183030 21 198 0.0 0.0 0.00 0.08 0.03 66 1011.7
20260830181530 21 198 0.0 0.0 0.00 0.08 0.03 64 1011.7
20260830180028 22 198 0.0 0.0 0.00 0.18 0.03 62 1011.8
20260830174529 22 198 0.0 0.0 0.00 0.18 0.03 61 1011.8
20260830173027 22 198 0.0 0.0 0.00 0.18 0.03 59 1011.8
20260830171527 22 198 0.0 0.0 0.00 0.18 0.03 59 1011.8
20260830170039 22 198 0.0 0.0 0.00 0.18 0.03 57 1011.8
20260830164525 23 198 0.0 0.0 0.00 0.18 0.03 56 1011.9
20260830163028 23 198 0.0 0.0 0.00 0.18 0.03 55 1011.9
20260830161525 23 198 0.0 0.0 0.00 0.18 0.03 54 1012.0
20260830160027 23 198 0.0 0.0 0.00 0.18 0.03 54 1011.9
20260830154524 23 195 0.0 0.0 0.00 0.18 0.03 53 1011.9
20260830153028 23 226 0.0 0.0 0.00 0.18 0.03 54 1012.0
20260830151523 23 196 0.0 0.0 0.00 0.18 0.03 54 1012.0
20260830150021 23 191 0.0 0.0 0.00 0.18 0.03 53 1012.2
20260830144521 23 198 0.0 0.0 0.00 0.18 0.03 53 1012.1
20260830143021 23 201 0.0 0.0 0.00 0.18 0.03 52 1012.2
20260830141520 23 211 0.0 0.0 0.00 0.18 0.03 53 1012.1
20260830140025 23 198 0.0 0.0 0.00 0.18 0.03 52 1012.2
20260830134518 23 221 0.0 0.0 0.00 0.18 0.03 52 1012.2
20260830133024 23 261 0.0 0.0 0.00 0.18 0.03 54 1012.3
20260830131516 23 213 0.0 0.0 0.00 0.18 0.03 55 1012.3
20260830130015 23 194 0.0 0.0 0.00 0.18 0.03 54 1012.3
20260830124520 23 213 0.0 12.9 0.00 0.18 0.03 55 1012.3
20260830123010 23 215 0.0 0.0 0.00 0.18 0.03 56 1012.3
20260830121506 22 196 0.0 0.0 0.00 0.18 0.03 59 1012.4
20260830120002 22 204 0.0 0.0 0.00 0.18 0.03 61 1012.3
20260830114606 22 186 0.0 0.0 0.00 0.18 0.03 61 1012.3
20260830113055 22 186 0.0 0.0 0.00 0.18 0.03 61 1012.4
20260830111552 21 208 0.0 0.0 0.00 0.18 0.03 63 1012.4
20260830110050 21 192 0.0 0.0 0.00 0.18 0.03 64 1012.4
20260830104549 21 198 0.0 0.0 0.00 0.18 0.03 66 1012.5
20260830103045 21 206 0.0 0.0 0.00 0.18 0.03 67 1012.4
20260830101541 21 188 0.0 0.0 0.00 0.18 0.03 67 1012.4
20260830100040 20 166 0.0 0.0 0.00 0.18 0.03 67 1012.4
20260830094536 20 193 0.0 0.0 0.00 0.18 0.03 68 1012.4
20260830093040 20 202 0.0 0.0 0.00 0.18 0.03 70 1012.3
20260830091530 20 195 0.0 0.0 0.00 0.18 0.03 71 1012.3
20260830090026 19 195 0.0 0.0 0.00 0.18 0.03 71 1012.2
20260830084523 19 197 0.0 0.0 0.00 0.18 0.03 70 1012.1
20260830083021 19 200 0.0 0.0 0.00 0.18 0.03 70 1011.9
20260830081523 19 91 0.0 0.0 0.00 0.18 0.03 70 1011.7
20260830080018 19 193 0.0 0.0 0.00 0.18 0.03 71 1011.5
20260830074516 19 196 0.0 0.0 0.00 0.18 0.03 71 1011.3
20260830073015 19 196 0.0 0.0 0.00 0.18 0.03 71 1011.2